Regional Weather Roundup
Issued by NWS Binghamton, NY

Home | Current Version | Previous Version | Text Only | Print | Product List | Glossary On
Versions: 1 2 3 4 5 6 7 8 9 10 11 12 13 14 15 16 17 18 19 20 21 22 23 24 25 26 27 28 29 30 31 32 33 34 35 36 37 38 39 40 41 42 43 44 45 46 47 48 49 50
000
ASUS41 KBGM 012210
RWRBGM
RWRBGM
BINGHAMTON REGIONAL WEATHER ROUNDUP
NATIONAL WEATHER SERVICE BINGHAMTON NY
600 PM EDT TUE SEP 01 2015

Note: "fair" indicates few or no clouds below 12,000 feet with no
significant weather and/or obstructions to visibility.

* = Station(s) that does not report precipitation, such as rain,
snow, etc, also no thunder or fog.

!NYZ009-015>018-022>025-036-037-044>046-055>057-062-012300
...CENTRAL NEW YORK...

CITY           SKY/WX    TMP DP  RH WIND       PRES   REMARKS
BINGHAMTON     SUNNY     79  65  62 E5        30.08F
CORTLAND       FAIR      81  64  57 W5        30.08S
DANSVILLE      SUNNY     85  64  49 VRB3      30.04S HX  86
ELMIRA         SUNNY     84  65  52 SW3       30.03F HX  86
ITHACA         SUNNY     81  67  62 N3        30.07F
HORNELL        SUNNY     82  61  47 NW6         N/A
MONTICELLO     MOSUNNY   81  63  54 SW5       30.09S
NORWICH        SUNNY     79  64  61 CALM      30.07S
ONEONTA        SUNNY     77  61  57 CALM      30.10R
PENN YAN       SUNNY     81  66  60 VRB3      30.06S
ROME           SUNNY     77  68  73 NW7       30.05F
SIDNEY         SUNNY     81  66  61 CALM      30.06S
SYRACUSE       SUNNY     79  70  74 N5        30.03F
$$

!PAZ038>040-043-044-047-048-072-012300
...NORTHEAST PENNSYLVANIA...

CITY           SKY/WX    TMP DP  RH WIND       PRES   REMARKS
HAZLETON       SUNNY     81  61  50 CALM      30.12S
SCRANTON       SUNNY     86  61  42 NW5       30.04F HX  86
$$
&&
KEY
WCI = WIND CHILL INDEX
VSB = VISIBILITY
HX  = HEAT INDEX
$$



USA.gov is the U.S. government's official web portal to all federal, state and local government web resources and services.